Monterey, Australia

9:28 PM AEST on June 27, 2017 (GMT +1000)
Monterey

Weather History for 94767 - June, 2013

Change the Weather History Date:

Friday, June 28, 2013

  Actual Average Record
Temperature  
Mean Temperature 58 °F -  
Max Temperature 61 °F 62 °F - ()
Min Temperature 55 °F 44 °F - ()
Degree Days  
Heating Degree Days 7    
Growing Degree Days 8 (Base 50)    
Moisture  
Dew Point 55 °F    
Average Humidity 91    
Maximum Humidity 100    
Minimum Humidity 73    
Precipitation  
Precipitation 0.79 in 0.08 in - ()
Sea Level Pressure  
Sea Level Pressure 30.20 in    
Wind  
Wind Speed 7 mph ()    
Max Wind Speed 16 mph    
Max Gust Speed -    
Visibility 4.9 miles    
Events Rain , Thunderstorm    
T = Trace of Precipitation, MM = Missing Value Source: Averaged Metar Reports

Daily Weather History Graph

Daily Weather History Graph

Search for Another Location

Airport or City:

Trip Planner

Search our weather history database for the weather conditions in past years. The results will help you decide how hot, cold, wet, or windy it might be!

Date:

Astronomy

Jun. 28, 2013 Rise Set
Actual Time 7:01 AM AEST 4:55 PM AEST
Civil Twilight 6:33 AM AEST 5:23 PM AEST
Nautical Twilight 6:02 AM AEST 5:54 PM AEST
Astronomical Twilight 5:31 AM AEST 6:25 PM AEST
Moon 10:27 PM AEST (6/28) 10:15 AM AEST (6/28)
Length of Visible Light 10h 49m
Length of Day
9h 54m
Waning Gibbous, 72% of the Moon is Illuminated
Jun 28
Waning Gibbous
Jun 30
Last Quarter
Jul 8
New
Jul 16
First Quarter
Jul 23
Full

Hourly Weather History & Observations

Time (AEST) Temp. Dew Point Humidity Pressure Visibility Wind Dir Wind Speed Gust Speed Precip Events Conditions
12:00 AM 58 °F 52 °F 75% 30.19 in 16 mi East 5.8 mph - -   Scattered Clouds
12:00 AM 57.2 °F 51.8 °F 82% 30.18 in 6.2 mi East 5.8 mph - N/A   Mostly Cloudy
12:30 AM 57.2 °F 51.8 °F 82% 30.18 in 6.2 mi ESE 5.8 mph - N/A   Mostly Cloudy
1:00 AM 58 °F 52 °F 73% 30.19 in - SSW 5.8 mph - -  
1:00 AM 57.2 °F 51.8 °F 82% 30.18 in 6.2 mi SSW 5.8 mph - N/A   Mostly Cloudy
1:30 AM 57.2 °F 51.8 °F 82% 30.18 in 6.2 mi West 6.9 mph - N/A Rain Light Rain Showers
1:50 AM 57.2 °F 51.8 °F 82% 30.18 in 4.3 mi NNW 6.9 mph - N/A Rain Light Rain Showers
1:57 AM 55.4 °F 53.6 °F 94% 30.18 in 3.1 mi NNW 6.9 mph - N/A Rain Rain Showers
2:00 AM 55.4 °F 53.6 °F 94% 30.18 in 1.2 mi NNW 6.9 mph - N/A Rain Rain Showers
2:30 AM 55.4 °F 53.6 °F 94% 30.18 in 3.7 mi NW 6.9 mph - N/A Rain Light Rain Showers
3:00 AM 56 °F 53 °F 88% 30.18 in 12 mi WSW 8.1 mph - -   Mostly Cloudy
3:00 AM 55.4 °F 53.6 °F 94% 30.15 in 6.2 mi WSW 8.1 mph - N/A   Mostly Cloudy
3:30 AM 57.2 °F 53.6 °F 88% 30.15 in 5.0 mi SW 8.1 mph - N/A Rain Light Rain Showers
3:53 AM 57.2 °F 55.4 °F 94% 30.18 in 3.7 mi West 5.8 mph - N/A Rain Light Rain Showers
4:00 AM 56 °F 54 °F 92% 30.18 in - WSW 8.1 mph - -  
4:00 AM 57.2 °F 53.6 °F 88% 30.15 in 4.3 mi WSW 8.1 mph - N/A Rain Light Rain Showers
4:30 AM 57.2 °F 55.4 °F 94% 30.18 in 4.3 mi SW 8.1 mph - N/A Rain Light Rain Showers
5:00 AM 57.2 °F 55.4 °F 94% 30.18 in 3.1 mi SW 5.8 mph - N/A Rain Rain Showers
5:11 AM 55.4 °F 55.4 °F 100% 30.18 in 1.9 mi SW 8.1 mph - N/A Rain Heavy Rain Showers
5:20 AM 55.4 °F 55.4 °F 100% 30.18 in 2.5 mi SW 9.2 mph - N/A Rain Heavy Rain Showers
5:30 AM 55.4 °F 55.4 °F 100% 30.18 in 2.2 mi WSW 8.1 mph - N/A Rain Heavy Rain Showers
6:00 AM 56 °F 55 °F 94% 30.20 in 4 mi WSW 9.2 mph - - Rain Light Rain Showers
6:00 AM 55.4 °F 55.4 °F 100% 30.18 in 4.3 mi WSW 9.2 mph - N/A Rain Light Rain Showers
6:10 AM 55.4 °F 55.4 °F 100% 30.18 in 2.2 mi SSW 5.8 mph - N/A Rain Rain Showers
6:30 AM 55.4 °F 55.4 °F 100% 30.18 in 1.9 mi WSW 5.8 mph - N/A Rain Light Rain Showers
6:41 AM 55.4 °F 55.4 °F 100% 30.18 in 3.1 mi SW 8.1 mph - N/A Rain Light Rain Showers
7:00 AM 56 °F 55 °F 95% 30.21 in - SW 6.9 mph - -  
7:00 AM 57.2 °F 55.4 °F 94% 30.18 in 3.7 mi SW 6.9 mph - N/A Rain Light Rain Showers
7:20 AM 55.4 °F 55.4 °F 100% 30.21 in 1.9 mi SW 9.2 mph - N/A Rain Light Rain Showers
7:30 AM 55.4 °F 55.4 °F 100% 30.21 in 1.9 mi SW 8.1 mph - N/A Rain Light Rain Showers
7:40 AM 57.2 °F 57.2 °F 100% 30.21 in 1.9 mi SW 8.1 mph - N/A Rain Rain Showers
8:00 AM 57.2 °F 55.4 °F 94% 30.21 in 4.3 mi West 5.8 mph - N/A Rain Light Rain Showers
8:30 AM 59.0 °F 57.2 °F 94% 30.21 in 6.2 mi WNW 4.6 mph - N/A Rain Light Rain
9:00 AM 58 °F 56 °F 90% 30.23 in 7 mi NW 4.6 mph - - Rain Light Rain Showers
9:00 AM 59.0 °F 55.4 °F 88% 30.21 in 6.2 mi NW 4.6 mph - N/A Rain Light Rain Showers
9:30 AM 57.2 °F 55.4 °F 94% 30.21 in 5.0 mi SSW 8.1 mph - N/A Rain Light Rain Showers
9:48 AM 57.2 °F 55.4 °F 94% 30.24 in 1.9 mi SW 5.8 mph - N/A Rain Rain Showers
10:00 AM 58 °F 56 °F 91% 30.24 in - NW 4.6 mph - -  
10:00 AM 59.0 °F 55.4 °F 88% 30.21 in 4.3 mi NW 4.6 mph - N/A Rain Light Rain Showers
10:20 AM 59.0 °F 57.2 °F 94% 30.21 in 3.1 mi SW 4.6 mph - N/A Rain Light Rain Showers
10:30 AM 59.0 °F 57.2 °F 94% 30.21 in 1.9 mi South 3.5 mph - N/A Rain Rain Showers
10:50 AM 59.0 °F 57.2 °F 94% 30.21 in 3.7 mi East 11.5 mph - N/A Rain Rain Showers
11:00 AM 59.0 °F 57.2 °F 94% 30.21 in 3.7 mi NW 12.7 mph - N/A Rain Light Rain Showers
11:30 AM 60.8 °F 57.2 °F 88% 30.21 in 3.7 mi North 5.8 mph - N/A Rain Light Rain Showers
12:00 PM 60 °F 57 °F 87% 30.22 in 5 mi NW 8.1 mph - - Rain Light Rain Showers
12:00 PM 60.8 °F 57.2 °F 88% 30.21 in 3.1 mi NW 8.1 mph - N/A Rain Light Rain Showers
12:11 PM 60.8 °F 55.4 °F 82% 30.21 in 1.9 mi NW 6.9 mph - N/A Rain Rain Showers
12:30 PM 59.0 °F 57.2 °F 94% 30.21 in 3.1 mi NNW 10.4 mph - N/A Rain Light Rain Showers
1:00 PM 59 °F 56 °F 88% 30.20 in - NNW 8.1 mph - -  
1:00 PM 59.0 °F 57.2 °F 94% 30.18 in 5.0 mi NNW 8.1 mph - N/A Rain Light Rain
1:30 PM 59.0 °F 57.2 °F 94% 30.18 in 6.2 mi ENE 8.1 mph - N/A Rain Light Rain
2:00 PM 60.8 °F 55.4 °F 82% 30.18 in 6.2 mi NE 10.4 mph - N/A Rain Light Rain Showers
2:30 PM 60.8 °F 55.4 °F 82% 30.18 in 6.2 mi ENE 8.1 mph - N/A   Mostly Cloudy
3:00 PM 61 °F 55 °F 75% 30.20 in 12 mi ENE 6.9 mph - -   Mostly Cloudy
3:00 PM 60.8 °F 55.4 °F 82% 30.18 in 6.2 mi ENE 6.9 mph - N/A   Mostly Cloudy
3:30 PM 60.8 °F 55.4 °F 82% 30.18 in 6.2 mi East 4.6 mph - N/A   Mostly Cloudy
4:00 PM 60 °F 54 °F 74% 30.21 in - NE 5.8 mph - -  
4:00 PM 60.8 °F 53.6 °F 77% 30.18 in 6.2 mi NE 5.8 mph - N/A Rain Light Rain
4:30 PM 60.8 °F 53.6 °F 77% 30.21 in 6.2 mi NE 4.6 mph - N/A Rain Light Rain
5:00 PM 59.0 °F 55.4 °F 88% 30.21 in 6.2 mi NE 1.2 mph - N/A Rain Light Rain Showers
5:30 PM 59.0 °F 57.2 °F 94% 30.21 in 6.2 mi SSW 8.1 mph - N/A Rain Light Rain Showers
6:00 PM 58 °F 56 °F 91% 30.22 in 9 mi South 12.7 mph - - Rain Light Rain Showers
6:00 PM 59.0 °F 55.4 °F 88% 30.21 in 6.2 mi South 12.7 mph - N/A Rain Light Rain Showers
6:30 PM 57.2 °F 55.4 °F 94% 30.21 in 6.2 mi SSW 11.5 mph - N/A Rain Light Rain Showers
7:00 PM 58 °F 56 °F 91% 30.24 in - South 16.1 mph - -  
7:00 PM 57.2 °F 55.4 °F 94% 30.21 in 6.2 mi South 16.1 mph - N/A Rain Light Rain Showers
7:30 PM 57.2 °F 55.4 °F 94% 30.24 in 6.2 mi SSE 16.1 mph - N/A Rain , Thunderstorm Light Rain Showers
8:00 PM 57.2 °F 55.4 °F 94% 30.24 in 6.2 mi South 13.8 mph - N/A Rain Light Rain Showers
8:30 PM 57.2 °F 55.4 °F 94% 30.21 in 6.2 mi South 16.1 mph - N/A Rain Light Rain Showers
8:49 PM 57.2 °F 55.4 °F 94% 30.24 in 3.7 mi SE 11.5 mph - N/A Rain Light Rain Showers
9:00 PM 57 °F 55 °F 89% 30.27 in 4 mi ESE 8.1 mph - - Rain Light Rain Showers
9:00 PM 57.2 °F 55.4 °F 94% 30.24 in 3.7 mi ESE 8.1 mph - N/A Rain , Thunderstorm Light Rain Showers
9:30 PM 55.4 °F 53.6 °F 94% 30.24 in 4.3 mi ESE 4.6 mph - N/A Rain Light Rain Showers
10:00 PM 56 °F 54 °F 90% 30.27 in - SSE 8.1 mph - -  
10:00 PM 55.4 °F 53.6 °F 94% 30.24 in 5.6 mi SSE 8.1 mph - N/A Rain Light Rain Showers
10:30 PM 57.2 °F 55.4 °F 94% 30.24 in 6.2 mi South 8.1 mph - N/A Rain Light Rain
11:00 PM 57.2 °F 55.4 °F 94% 30.24 in 6.2 mi South 6.9 mph - N/A   Light Drizzle
11:30 PM 57.2 °F 55.4 °F 94% 30.24 in 6.2 mi SE 3.5 mph - N/A   Light Drizzle